Valparaiso, FL

8:27 PM CDT on July 23, 2017 (GMT -0500)
Eglin Air Force Base

Weather History for KVPS - July, 2012

Change the Weather History Date:

Tuesday, July 24, 2012

  Actual Average Record
Temperature  
Mean Temperature 86 °F -  
Max Temperature 95 °F 90 °F 100 °F (1987)
Min Temperature 78 °F 71 °F 59 °F (2006)
Cooling Degree Days 22    
Growing Degree Days 36 (Base 50)    
Moisture  
Dew Point 75 °F    
Average Humidity 77    
Maximum Humidity 90    
Minimum Humidity 49    
Precipitation  
Precipitation 0.07 in - - ()
Sea Level Pressure  
Sea Level Pressure 30.06 in    
Wind  
Wind Speed 4 mph (NW)    
Max Wind Speed 14 mph    
Max Gust Speed 17 mph    
Visibility 9 miles    
Events Rain , Thunderstorm    
Averages and records for this station are not official NWS values.
T = Trace of Precipitation, MM = Missing Value Source: NWS Daily Summary

Daily Weather History Graph

Daily Weather History Graph

Search for Another Location

Airport or City:

Trip Planner

Search our weather history database for the weather conditions in past years. The results will help you decide how hot, cold, wet, or windy it might be!

Date:

Astronomy

Jul. 24, 2012 Rise Set
Actual Time 5:59 AM CDT 7:45 PM CDT
Civil Twilight 5:33 AM CDT 8:11 PM CDT
Nautical Twilight 5:01 AM CDT 8:43 PM CDT
Astronomical Twilight 4:27 AM CDT 9:17 PM CDT
Moon 11:26 AM CDT 11:05 PM CDT
Length of Visible Light 14h 38m
Length of Day
13h 45m
Waxing Crescent, 32% of the Moon is Illuminated
Jul 24
Waxing Crescent
Jul 26
First Quarter
Aug 1
Full
Aug 9
Last Quarter
Aug 17
New

Hourly Weather History & Observations

Time (CDT) Temp. Heat Index Dew Point Humidity Pressure Visibility Wind Dir Wind Speed Gust Speed Precip Events Conditions
12:57 AM 80.2 °F 84.9 °F 73.9 °F 81% 30.10 in 10.0 mi NW 2.3 mph - N/A   Partly Cloudy
1:58 AM 78.8 °F - 74.1 °F 85% 30.10 in 10.0 mi WNW 1.2 mph - N/A   Mostly Cloudy
2:55 AM 79.0 °F - 74.3 °F 85% 30.10 in 10.0 mi NNW 1.2 mph - N/A   Scattered Clouds
3:58 AM 78.6 °F - 74.5 °F 87% 30.10 in 10.0 mi West 1.2 mph - N/A   Partly Cloudy
4:56 AM 78.8 °F - 75.0 °F 88% 30.11 in 10.0 mi Calm Calm - N/A   Partly Cloudy
5:22 AM 78.8 °F - 75.2 °F 89% 30.10 in 8.0 mi NW 1.2 mph - N/A   Mostly Cloudy
5:58 AM 78.3 °F - 75.0 °F 90% 30.12 in 10.0 mi Calm Calm - N/A   Mostly Cloudy
6:44 AM 80.6 °F 86.2 °F 75.2 °F 84% 30.11 in 10.0 mi West 2.3 mph - N/A   Mostly Cloudy
6:57 AM 80.4 °F 85.8 °F 75.2 °F 84% 30.12 in 10.0 mi West 2.3 mph - N/A   Mostly Cloudy
7:55 AM 83.1 °F 91.3 °F 75.9 °F 79% 30.12 in 10.0 mi West 5.8 mph - N/A   Scattered Clouds
8:55 AM 85.5 °F 95.0 °F 75.9 °F 73% 30.11 in 10.0 mi WNW 4.6 mph - N/A   Partly Cloudy
9:55 AM 89.1 °F 100.2 °F 76.1 °F 65% 30.11 in 9.0 mi NNW 6.9 mph - N/A   Scattered Clouds
10:55 AM 92.8 °F 103.4 °F 74.5 °F 55% 30.10 in 9.0 mi North 6.9 mph - N/A   Mostly Cloudy
11:55 AM 94.6 °F 104.4 °F 73.4 °F 50% 30.07 in 9.0 mi North 6.9 mph - N/A   Mostly Cloudy
12:55 PM 94.1 °F 103.8 °F 73.4 °F 51% 30.06 in 8.0 mi North 5.8 mph 17.3 mph N/A   Mostly Cloudy
1:04 PM 95.0 °F 104.5 °F 73.4 °F 49% 30.05 in 8.0 mi North 10.4 mph - N/A Thunderstorm Mostly Cloudy
1:20 PM 91.4 °F 102.5 °F 75.2 °F 59% 30.04 in 9.0 mi North 8.1 mph - N/A   Mostly Cloudy
1:55 PM 87.8 °F 102.5 °F 79.2 °F 75% 30.03 in 8.0 mi South 11.5 mph - N/A Thunderstorm Mostly Cloudy
2:11 PM 87.8 °F 102.5 °F 78.8 °F 75% 30.03 in 7.0 mi South 13.8 mph - N/A   Mostly Cloudy
2:28 PM 84.2 °F 92.3 °F 75.2 °F 74% 30.02 in 7.0 mi SSE 11.5 mph - N/A Thunderstorm Thunderstorm
2:55 PM 86.2 °F 95.1 °F 74.8 °F 69% 30.02 in 7.0 mi SSW 9.2 mph - N/A Thunderstorm Mostly Cloudy
3:56 PM 84.9 °F 92.9 °F 74.7 °F 71% 30.01 in 6.0 mi SSW 9.2 mph - N/A Thunderstorm Mostly Cloudy
4:13 PM 84.2 °F 90.9 °F 73.4 °F 70% 30.02 in 6.0 mi SSE 6.9 mph - N/A Rain , Thunderstorm Light Thunderstorms and Rain
4:55 PM 80.8 °F 86.9 °F 75.7 °F 85% 30.03 in 6.0 mi Variable 1.2 mph - 0.05 in Rain , Thunderstorm Light Thunderstorms and Rain
5:27 PM 78.8 °F - 75.2 °F 89% 30.00 in 7.0 mi North 4.6 mph - N/A Thunderstorm Thunderstorm
5:55 PM 80.2 °F 85.5 °F 75.2 °F 85% 30.01 in 7.0 mi North 4.6 mph - 0.02 in   Mostly Cloudy
6:55 PM 81.0 °F 86.3 °F 74.3 °F 80% 30.02 in 7.0 mi WNW 2.3 mph - N/A   Mostly Cloudy
7:55 PM 81.0 °F 86.2 °F 73.9 °F 79% 30.01 in 8.0 mi Variable 3.5 mph - N/A   Mostly Cloudy
8:56 PM 80.2 °F 85.7 °F 75.6 °F 86% 30.02 in 10.0 mi Calm Calm - N/A   Mostly Cloudy
9:56 PM 79.9 °F - 75.9 °F 88% 30.03 in 10.0 mi Calm Calm - N/A   Mostly Cloudy
10:58 PM 79.7 °F - 75.2 °F 86% 30.02 in 10.0 mi NW 2.3 mph - N/A   Mostly Cloudy
11:55 PM 79.7 °F - 74.5 °F 84% 30.02 in 10.0 mi Variable 2.3 mph - N/A   Mostly Cloudy